User: anonymous   Login
Location: Unspecified
(0.0000°N, 0.0000°E)
Time: 10:12:35
(UTC+00:00)
Language:

COSMOS 2409 - Orbit

View from above orbital plane
View from above orbital plane
View from above satellite
View from above satellite

Ground track
Ground track

The orbit data is extracted from the following two-line orbital elements,

1 28380U 04028A   17116.51113626 +.00000020 +00000-0 +46650-5 0  9994
2 28380 082.9646 026.5778 0037978 226.9347 132.8629 13.76038962640893
Epoch (UTC): 26 April 2017 12:16:02
Eccentricity: 0.0037978
inclination: 82.9646°
perigee height: 950 km
apogee height: 1006 km
right ascension of ascending node: 26.5778°
argument of perigee: 226.9347°
revolutions per day: 13.76038962
mean anomaly at epoch: 132.8629°
orbit number at epoch: 64089

The dashed part of the orbit path shows where the satellite is in the earth's shadow,  

DLR